Wind_Speed
36 36 35 36 38 37 37 36 34 33 32 31 30 28 26 25 25 23 22 21 22 22
35 34 35 36 35 34 33 34 33 33 33 31 30 29 28 27 24 23 23 23 22 22
33 34 35 34 33 32 32 32 32 33 32 31 31 30 28 27 25 23 22 22 22 21
33 33 33 32 31 32 32 32 32 33 33 32 31 30 30 27 22 22 25 25 21 26
32 31 32 32 32 32 33 33 33 33 33 32 31 30 30 28 23 24 25 23 21 23
31 32 33 33 34 33 34 35 35 34 34 34 32 31 29 28 26 24 22 20 17 18
32 33 34 35 36 36 36 37 36 35 35 34 32 30 29 27 23 19 18 18 18 19
33 34 35 37 38 38 38 37 37 37 35 34 32 30 26 25 25 24 23 23 22 20
34 36 37 39 40 40 40 39 38 36 34 33 30 27 24 24 25 23 23 23 22 21
35 38 40 41 41 42 41 38 36 35 33 32 30 27 25 23 23 24 25 23 23 23
37 40 41 42 42 39 36 36 36 35 33 33 31 26 26 25 23 22 23 23 23 24
37 40 42 41 37 36 37 36 35 35 34 33 32 26 25 24 21 21 22 22 21 22
37 39 37 34 35 36 36 37 36 36 32 29 28 22 18 17 18 20 20 19 17 15
36 35 32 34 35 36 37 36 36 35 32 30 27 25 20 18 18 20 21 20 19 18
Wind_Direction
321 319 320 322 322 321 320 321 321 321 319 319 317 316 311 305 300 298 294 289 284 282
318 320 319 318 318 319 320 320 319 318 318 318 317 316 314 308 301 300 295 288 286 282
319 318 317 319 321 321 320 319 318 318 318 318 317 315 313 308 302 298 292 290 294 289
320 320 321 322 322 321 319 319 319 317 316 316 315 313 311 307 300 296 289 294 279 278
324 324 324 324 323 322 321 320 319 317 315 314 313 311 308 305 296 284 287 290 287 279
327 326 326 325 324 323 322 320 319 317 315 314 313 310 306 303 298 289 286 290 290 288
329 328 327 326 326 326 323 321 318 316 315 314 312 308 306 301 300 294 286 284 287 286
329 328 329 329 327 324 322 320 318 317 316 314 311 310 306 305 300 295 290 286 286 282
331 331 332 328 326 324 323 321 319 318 317 315 314 309 299 295 293 289 285 277 275 280
334 333 331 328 327 325 324 322 322 321 320 318 316 310 302 300 292 287 280 278 276 276
335 332 331 328 327 327 327 326 327 325 324 322 320 307 302 298 294 284 280 274 270 272
336 333 331 329 330 332 332 330 330 328 324 322 318 315 305 299 293 288 284 278 273 269
336 332 331 333 337 337 335 334 332 328 329 326 321 323 314 304 299 294 292 290 284 277
337 335 337 339 343 340 337 334 334 333 334 333 335 334 327 307 297 290 289 286 282 273
Height
1492 1487 1481 1475 1470 1465 1460 1455 1451 1446 1442 1437 1433 1428 1425 1422 1420 1417 1415 1412 1410 1408
1485 1480 1473 1469 1464 1458 1453 1448 1444 1441 1436 1431 1427 1422 1419 1415 1413 1411 1409 1406 1404 1402
1479 1474 1468 1462 1458 1452 1447 1442 1438 1434 1429 1424 1420 1416 1413 1409 1407 1404 1403 1401 1399 1396
1474 1468 1463 1457 1452 1447 1441 1436 1431 1427 1422 1418 1414 1410 1406 1403 1400 1399 1396 1395 1394 1391
1467 1462 1457 1452 1446 1441 1435 1430 1426 1421 1416 1411 1407 1404 1399 1396 1394 1392 1390 1389 1387 1385
1461 1456 1450 1444 1439 1434 1428 1423 1419 1414 1409 1404 1400 1396 1393 1389 1386 1385 1383 1383 1382 1381
1455 1450 1444 1439 1433 1427 1422 1416 1411 1407 1401 1396 1392 1388 1385 1382 1380 1379 1378 1377 1377 1376
1449 1444 1438 1433 1427 1421 1415 1410 1404 1398 1394 1389 1384 1381 1377 1376 1375 1373 1372 1371 1371 1371
1444 1439 1432 1426 1420 1414 1408 1402 1396 1391 1386 1381 1377 1374 1372 1371 1369 1367 1366 1365 1365 1365
1438 1432 1427 1421 1414 1407 1400 1394 1389 1383 1378 1373 1370 1366 1366 1365 1363 1361 1360 1359 1359 1359
1434 1428 1422 1414 1407 1400 1394 1388 1381 1376 1372 1366 1363 1361 1359 1358 1356 1353 1352 1352 1352 1352
1429 1422 1415 1408 1401 1394 1387 1381 1375 1371 1365 1361 1356 1353 1352 1351 1348 1346 1345 1345 1345 1346
1425 1417 1409 1402 1395 1388 1383 1376 1370 1365 1361 1356 1351 1348 1345 1344 1343 1341 1340 1339 1339 1340
1420 1412 1405 1397 1391 1383 1377 1371 1366 1360 1355 1350 1347 1342 1340 1339 1338 1336 1334 1334 1333 1334